Weather History for Ludington, MI

Change the Weather History Date:

Monday, October 7, 2013

  Actual Average Record
Temperature  
Mean Temperature 52 °F -  
Max Temperature 62 °F 61 °F 80 °F (1982)
Min Temperature 43 °F 42 °F 26 °F (1964)
Degree Days  
Heating Degree Days 12    
Growing Degree Days 2 (Base 50)    
Moisture  
Dew Point 46 °F    
Average Humidity 71    
Maximum Humidity 91    
Minimum Humidity 51    
Precipitation  
Precipitation 0.11 in - - ()
Sea Level Pressure  
Sea Level Pressure 29.81 in    
Wind  
Wind Speed 7 mph (WNW)    
Max Wind Speed 14 mph    
Max Gust Speed 22 mph    
Visibility 10 miles    
Events Rain    
Averages and records for this station are not official NWS values.
T = Trace of Precipitation, MM = Missing Value Source: NWS Daily Summary

Daily Weather History Graph

Daily Weather History Graph

Search for Another Location

Airport:

Trip Planner

Search our weather history database for the weather conditions in past years. The results will help you decide how hot, cold, wet, or windy it might be!

Date:

Astronomy

Oct. 07, 2013 Rise Set
Actual Time 7:50 AM EDT 7:15 PM EDT
Civil Twilight 7:21 AM EDT 7:44 PM EDT
Nautical Twilight 6:48 AM EDT 8:17 PM EDT
Astronomical Twilight 6:14 AM EDT 8:50 PM EDT
Moon 10:46 AM EDT (10/7) 8:52 PM EDT (10/7)
Length of Visible Light 12h 22m
Length of Day
11h 24m
Waxing Crescent, 8% of the Moon is Illuminated
Oct 7
Waxing Crescent
Oct 11
First Quarter
Oct 18
Full
Oct 26
Last Quarter
Nov 3
New

Hourly Weather History & Observations

Time (EDT) Temp. Dew Point Humidity Pressure Visibility Wind Dir Wind Speed Gust Speed Precip Events Conditions
12:15 AM 58.1 °F 47.7 °F 68% 29.65 in 10.0 mi WNW 9.2 mph - N/A   Overcast
12:34 AM 58.5 °F 46.0 °F 63% 29.66 in 10.0 mi WNW 4.6 mph - N/A   Overcast
12:55 AM 58.5 °F 45.0 °F 61% 29.65 in 10.0 mi NW 4.6 mph - N/A   Overcast
1:15 AM 58.5 °F 45.5 °F 62% 29.65 in 10.0 mi WNW 6.9 mph - N/A   Overcast
1:35 AM 58.5 °F 44.6 °F 60% 29.65 in 10.0 mi NW 6.9 mph - N/A   Overcast
1:55 AM 56.7 °F 43.7 °F 62% 29.65 in 10.0 mi WNW 5.8 mph - N/A   Overcast
2:15 AM 56.3 °F 43.2 °F 61% 29.65 in 10.0 mi WNW 3.5 mph - N/A   Overcast
2:35 AM 55.9 °F 43.5 °F 63% 29.66 in 10.0 mi West 3.5 mph - N/A   Mostly Cloudy
2:55 AM 57.2 °F 45.1 °F 64% 29.66 in 10.0 mi West 6.9 mph - N/A   Overcast
3:15 AM 57.2 °F 45.1 °F 64% 29.65 in 10.0 mi WNW 6.9 mph - N/A   Overcast
3:35 AM 56.1 °F 44.1 °F 64% 29.64 in 10.0 mi NW 6.9 mph - N/A   Overcast
3:55 AM 55.9 °F 43.0 °F 62% 29.65 in 10.0 mi NW 6.9 mph - N/A   Overcast
4:15 AM 55.9 °F 42.1 °F 60% 29.65 in 10.0 mi NW 6.9 mph - N/A   Overcast
4:35 AM 55.9 °F 41.5 °F 58% 29.65 in 10.0 mi NW 6.9 mph - N/A   Overcast
4:55 AM 55.9 °F 41.9 °F 59% 29.65 in 10.0 mi WNW 4.6 mph - N/A   Overcast
5:15 AM 55.9 °F 44.1 °F 64% 29.65 in 10.0 mi WNW 8.1 mph 16.1 mph N/A   Overcast
5:35 AM 55.9 °F 46.4 °F 70% 29.65 in 10.0 mi WNW 9.2 mph 17.3 mph N/A   Mostly Cloudy
5:55 AM 55.9 °F 47.7 °F 74% 29.65 in 10.0 mi WNW 8.1 mph - N/A   Scattered Clouds
6:15 AM 55.8 °F 48.0 °F 75% 29.66 in 10.0 mi WNW 4.6 mph - N/A   Clear
6:35 AM 54.7 °F 46.9 °F 75% 29.66 in 10.0 mi West 3.5 mph - N/A   Scattered Clouds
6:55 AM 55.9 °F 48.7 °F 77% 29.67 in 10.0 mi WNW 5.8 mph - N/A   Mostly Cloudy
7:15 AM 55.9 °F 49.1 °F 78% 29.67 in 10.0 mi NW 6.9 mph - N/A   Overcast
7:35 AM 55.9 °F 49.5 °F 79% 29.67 in 10.0 mi WNW 9.2 mph - N/A   Overcast
7:55 AM 55.9 °F 50.0 °F 80% 29.67 in 10.0 mi WNW 4.6 mph - N/A   Overcast
8:15 AM 55.9 °F 52.2 °F 87% 29.68 in 7.0 mi NW 6.9 mph 18.4 mph 0.01 in Rain Light Rain
8:35 AM 55.9 °F 52.0 °F 87% 29.69 in 10.0 mi NW 10.4 mph 18.4 mph 0.03 in   Overcast
8:55 AM 54.9 °F 51.1 °F 87% 29.70 in 4.0 mi NW 11.5 mph 18.4 mph 0.06 in Rain Rain
9:15 AM 53.6 °F 50.0 °F 88% 29.71 in 10.0 mi NNW 12.7 mph 20.7 mph 0.02 in   Overcast
9:35 AM 53.6 °F 50.0 °F 88% 29.72 in 10.0 mi NNW 12.7 mph 20.7 mph 0.03 in Rain Light Rain
9:55 AM 51.4 °F 47.7 °F 87% 29.74 in 7.0 mi North 10.4 mph 20.7 mph 0.04 in Rain Light Rain
10:15 AM 50.9 °F 47.3 °F 87% 29.75 in 7.0 mi NNW 10.4 mph - 0.01 in Rain Rain
10:35 AM 52.2 °F 48.2 °F 86% 29.76 in 10.0 mi North 6.9 mph - 0.01 in   Overcast
10:55 AM 53.6 °F 48.7 °F 84% 29.77 in 10.0 mi NNW 10.4 mph 17.3 mph 0.01 in   Overcast
11:15 AM 55.9 °F 48.9 °F 77% 29.78 in 10.0 mi NNW 9.2 mph 18.4 mph N/A   Mostly Cloudy
11:35 AM 55.9 °F 47.8 °F 74% 29.80 in 10.0 mi NNW 12.7 mph 20.7 mph N/A   Mostly Cloudy
11:55 AM 56.1 °F 47.3 °F 72% 29.81 in 10.0 mi NNW 12.7 mph 21.9 mph N/A   Mostly Cloudy
12:15 PM 56.5 °F 46.6 °F 69% 29.82 in 10.0 mi NW 13.8 mph - N/A   Mostly Cloudy
12:35 PM 58.5 °F 46.8 °F 65% 29.83 in 10.0 mi NW 13.8 mph 21.9 mph N/A   Mostly Cloudy
12:55 PM 58.5 °F 46.8 °F 65% 29.84 in 10.0 mi NNW 12.7 mph 16.1 mph N/A   Mostly Cloudy
1:15 PM 56.5 °F 45.7 °F 67% 29.84 in 10.0 mi NNW 10.4 mph 18.4 mph N/A   Overcast
1:35 PM 57.2 °F 45.9 °F 66% 29.85 in 10.0 mi NW 10.4 mph 17.3 mph N/A   Overcast
1:55 PM 58.5 °F 46.4 °F 64% 29.86 in 10.0 mi NW 12.7 mph 17.3 mph N/A   Mostly Cloudy
2:15 PM 58.5 °F 46.8 °F 65% 29.86 in 10.0 mi WNW 8.1 mph - N/A   Mostly Cloudy
2:35 PM 58.5 °F 46.2 °F 64% 29.87 in 10.0 mi West 11.5 mph - N/A   Scattered Clouds
2:55 PM 58.5 °F 46.8 °F 65% 29.87 in 10.0 mi West 6.9 mph - N/A   Scattered Clouds
3:15 PM 59.7 °F 46.6 °F 62% 29.88 in 10.0 mi West 11.5 mph 17.3 mph N/A   Scattered Clouds
3:35 PM 61.0 °F 47.5 °F 61% 29.89 in 10.0 mi West 11.5 mph 17.3 mph N/A   Scattered Clouds
3:55 PM 61.0 °F 46.0 °F 58% 29.90 in 10.0 mi West 9.2 mph 16.1 mph N/A   Scattered Clouds
4:15 PM 61.0 °F 46.2 °F 58% 29.90 in 10.0 mi West 12.7 mph 17.3 mph N/A   Scattered Clouds
4:35 PM 61.2 °F 46.4 °F 58% 29.90 in 10.0 mi WNW 9.2 mph 16.1 mph N/A   Scattered Clouds
4:55 PM 61.7 °F 46.9 °F 58% 29.91 in 10.0 mi West 9.2 mph - N/A   Clear
5:15 PM 62.2 °F 47.1 °F 58% 29.92 in 10.0 mi West 6.9 mph - N/A   Clear
5:35 PM 61.9 °F 43.7 °F 51% 29.93 in 10.0 mi WNW 6.9 mph - N/A   Clear
5:55 PM 61.0 °F 44.4 °F 54% 29.93 in 10.0 mi West 8.1 mph 16.1 mph N/A   Clear
6:15 PM 61.0 °F 43.9 °F 53% 29.93 in 10.0 mi West 6.9 mph - N/A   Clear
6:35 PM 61.0 °F 45.1 °F 56% 29.94 in 10.0 mi West 5.8 mph - N/A   Clear
6:55 PM 59.9 °F 45.9 °F 60% 29.95 in 10.0 mi West 4.6 mph - N/A   Clear
7:15 PM 60.4 °F 46.6 °F 60% 29.95 in 10.0 mi West 5.8 mph - N/A   Clear
7:35 PM 59.2 °F 46.6 °F 63% 29.96 in 10.0 mi West 5.8 mph - N/A   Clear
7:55 PM 61.0 °F 46.4 °F 59% 29.97 in 10.0 mi West 5.8 mph - N/A   Clear
8:15 PM 58.6 °F 44.2 °F 59% 29.97 in 10.0 mi Calm Calm - N/A   Clear
8:35 PM 57.6 °F 45.9 °F 65% 29.99 in 10.0 mi Calm Calm - N/A   Clear
8:55 PM 52.2 °F 47.1 °F 83% 29.99 in 10.0 mi Calm Calm - N/A   Clear
9:15 PM 50.9 °F 46.8 °F 86% 30.01 in 10.0 mi Calm Calm - N/A   Clear
9:35 PM 50.9 °F 47.5 °F 88% 30.02 in 10.0 mi Calm Calm - N/A   Clear
9:55 PM 48.9 °F 45.7 °F 89% 30.03 in 10.0 mi Calm Calm - N/A   Clear
10:15 PM 48.4 °F 45.5 °F 90% 30.04 in 10.0 mi Calm Calm - N/A   Clear
10:35 PM 46.8 °F 43.9 °F 90% 30.04 in 7.0 mi Calm Calm - N/A   Clear
10:55 PM 48.4 °F 45.7 °F 90% 30.05 in 10.0 mi Calm Calm - N/A   Clear
11:15 PM 44.8 °F 42.1 °F 90% 30.05 in 1.0 mi Calm Calm - N/A   Mist
11:35 PM 43.3 °F 41.0 °F 91% 30.06 in 4.0 mi Calm Calm - N/A   Clear
11:55 PM 45.9 °F 43.3 °F 91% 30.07 in 7.0 mi Calm Calm - N/A   Clear